Location: Ottawa
(45.4167°N, 75.7000°W)
Time: 05:37:43
(UTC-05:00)

Vanguard 2 - All Passes

Search period start: 22 January 2018 00:00
Search period end: 01 February 2018 00:00
Orbit: 553 x 2939 km, 32.9° (Epoch: 21 January)

Date Brightness Start Highest point End Pass type
(mag) Time Alt. Az. Time Alt. Az. Time Alt. Az.
22 Jan - 02:05:41 10° S 02:10:56 21° SE 02:18:09 10° ESE visible
22 Jan - 04:10:49 10° SW 04:18:56 41° SSE 04:31:37 10° ESE visible
22 Jan - 06:18:17 10° WSW 06:28:40 44° S 06:43:45 10° ESE visible
22 Jan - 08:27:42 10° W 08:39:07 31° SSW 08:53:15 10° SSE daylight
22 Jan - 10:43:03 10° WSW 10:49:03 13° SW 10:55:17 10° SSW daylight
23 Jan - 02:22:40 10° SSW 02:28:26 25° SSE 02:36:46 10° E visible
23 Jan - 04:28:31 10° WSW 04:36:46 43° S 04:49:41 10° ESE visible
23 Jan - 06:36:18 10° WSW 06:46:37 41° SSW 07:01:20 10° SE visible
23 Jan - 08:46:22 10° WSW 08:56:56 26° SSW 09:09:40 10° SSE daylight
24 Jan - 02:39:56 10° SW 02:46:01 30° SSE 02:55:08 10° ESE visible
24 Jan - 04:46:20 10° WSW 04:54:38 43° S 05:07:38 10° ESE visible
24 Jan - 06:54:26 10° WSW 07:04:33 36° SSW 07:18:40 10° SE visible
24 Jan - 09:05:32 10° WSW 09:14:42 20° SW 09:25:24 10° S daylight
25 Jan - 00:53:54 10° SSE 00:56:28 13° SE 00:59:29 10° ESE visible
25 Jan - 02:57:26 10° SW 03:03:42 33° SSE 03:13:22 10° ESE visible
25 Jan - 05:04:13 10° WSW 05:12:33 41° S 05:25:29 10° ESE visible
25 Jan - 07:12:43 10° WSW 07:22:28 31° SSW 07:35:41 10° SSE daylight
25 Jan - 09:25:43 10° WSW 09:32:27 14° SW 09:39:57 10° S daylight
26 Jan - 01:10:10 10° S 01:13:55 17° SE 01:18:44 10° ESE visible
26 Jan - 03:15:03 10° SW 03:21:28 36° SSE 03:31:29 10° ESE visible
26 Jan - 05:22:11 10° WSW 05:30:29 38° S 05:43:09 10° SE visible
26 Jan - 07:31:15 10° WSW 07:40:22 26° SSW 07:52:18 10° SSE daylight
27 Jan - 01:27:08 10° SSW 01:31:27 21° SSE 01:37:21 10° ESE visible
27 Jan - 03:32:48 10° WSW 03:39:18 37° S 03:49:30 10° ESE visible
27 Jan - 05:40:15 10° WSW 05:48:26 34° SSW 06:00:37 10° SE visible
27 Jan - 07:50:12 10° WSW 07:58:15 20° SSW 08:08:19 10° S daylight
28 Jan - 01:44:26 10° SSW 01:49:05 25° SSE 01:55:41 10° ESE visible
28 Jan - 03:50:37 10° WSW 03:57:10 36° S 04:07:23 10° ESE visible
28 Jan - 05:58:28 10° WSW 06:06:24 29° SSW 06:17:46 10° SE visible
28 Jan - 08:09:59 10° WSW 08:16:08 15° SSW 08:23:17 10° S daylight
29 Jan - 02:01:56 10° SW 02:06:47 28° SSE 02:13:52 10° ESE visible
29 Jan - 04:08:33 10° WSW 04:15:05 34° S 04:25:07 10° SE visible
29 Jan - 06:16:55 10° WSW 06:24:21 24° SSW 06:34:33 10° SSE visible
30 Jan - 00:14:54 10° S 00:17:15 13° SSE 00:19:59 10° ESE night (unlit)
30 Jan - 02:19:36 10° SW 02:24:34 29° S 02:31:54 10° ESE visible
30 Jan - 04:26:34 10° WSW 04:33:01 30° S 04:42:39 10° SE visible
30 Jan - 06:35:44 10° WSW 06:42:17 19° SSW 06:50:46 10° SSE visible
31 Jan - 00:31:46 10° SSW 00:34:52 17° SSE 00:38:42 10° ESE night (unlit)
31 Jan - 02:37:23 10° SW 02:42:24 29° S 02:49:50 10° ESE visible
31 Jan - 04:44:45 10° WSW 04:50:57 26° SSW 04:59:56 10° SE visible
31 Jan - 06:55:25 10° SW 07:00:14 14° SSW 07:05:56 10° S visible
